Location: Helion Bumpstead
(52.0500°N, 0.4000°E)
Time: 20:06:13
(UTC+00:00)

Aureole 3 - Pass Details

Date: 15 November 2025
Orbit: 371 x 1041 km, 82.5° (Epoch: 14 December)

Event Time Altitude Azimuth Distance (km) Brightness Sun altitude
Rises 05:23:12 0° 199° (SSW) 3,560 7.3 -17.5°
Reaches altitude 10° 05:25:53 10° 202° (SSW) 2,532 6.5 -17.1°
Maximum altitude 05:31:34 61° 283° (WNW) 872 4.0 -16.3°
Drops below altitude 10° 05:36:17 10° 4° (N) 2,109 6.2 -15.5°
Sets 05:38:22 0° 9° (N) 2,923 7.0 -15.2°
